• In Deutschland
  • Länderverzeichnis
  • Für 7 Tage
  • Wassertemperatur
  • Satellitenkarten
  • Wetterkarte
  • Widgets
  • user-avatar
    Anmelden

    Stündliche Wetter Durres

    Heute, 17 August, Donnerstag

    Zeit Temperatur Niederschläge Wind Luftdruck Luftfeuchtigkeit
    00:00 +25°C° 0,1 mm 3 m/S 760 mmHg 61%
    01:00 +26°C° 0 mm 3 m/S 759 mmHg 58%
    02:00 +25°C° 0 mm 3 m/S 759 mmHg 60%
    03:00 +25°C° 0 mm 3 m/S 759 mmHg 61%
    04:00 +25°C° 0 mm 3 m/S 759 mmHg 62%
    05:00 +26°C° 0 mm 3 m/S 759 mmHg 57%
    06:00 +28°C° 0 mm 3 m/S 759 mmHg 52%
    07:00 +31°C° 0 mm 3 m/S 759 mmHg 44%
    08:00 +33°C° 0 mm 3 m/S 759 mmHg 38%
    09:00 +35°C° 0 mm 3 m/S 759 mmHg 32%
    10:00 +37°C° 0 mm 3 m/S 759 mmHg 26%
    11:00 +38°C° 0 mm 4 m/S 759 mmHg 25%
    12:00 +39°C° 0 mm 5 m/S 759 mmHg 24%
    13:00 +40°C° 0 mm 5 m/S 759 mmHg 23%
    14:00 +39°C° 0 mm 6 m/S 759 mmHg 25%
    15:00 +38°C° 0 mm 6 m/S 759 mmHg 27%
    16:00 +36°C° 0 mm 7 m/S 759 mmHg 29%
    17:00 +35°C° 0 mm 7 m/S 759 mmHg 33%
    18:00 +33°C° 0 mm 6 m/S 759 mmHg 38%
    19:00 +30°C° 0 mm 6 m/S 759 mmHg 42%
    20:00 +29°C° 0 mm 5 m/S 759 mmHg 43%
    21:00 +28°C° 0 mm 5 m/S 760 mmHg 45%
    22:00 +27°C° 0 mm 5 m/S 760 mmHg 46%
    23:00 +27°C° 0 mm 4 m/S 760 mmHg 46%

    Morgen, 18 August, Freitag

    Zeit Temperatur Niederschläge Wind Luftdruck Luftfeuchtigkeit
    00:00 +26°C° 0 mm 4 m/S 760 mmHg 47%
    01:00 +26°C° 0 mm 4 m/S 760 mmHg 47%
    02:00 +25°C° 0 mm 4 m/S 760 mmHg 48%
    03:00 +25°C° 0 mm 3 m/S 760 mmHg 48%
    04:00 +25°C° 0 mm 3 m/S 760 mmHg 48%
    05:00 +26°C° 0 mm 3 m/S 760 mmHg 44%
    06:00 +28°C° 0 mm 3 m/S 760 mmHg 41%
    07:00 +30°C° 0 mm 3 m/S 760 mmHg 37%
    08:00 +33°C° 0 mm 3 m/S 760 mmHg 32%
    09:00 +35°C° 0 mm 3 m/S 760 mmHg 27%
    10:00 +38°C° 0 mm 3 m/S 760 mmHg 21%
    11:00 +38°C° 0 mm 3 m/S 760 mmHg 20%
    12:00 +40°C° 0 mm 4 m/S 760 mmHg 19%
    13:00 +41°C° 0 mm 5 m/S 760 mmHg 18%
    14:00 +40°C° 0 mm 5 m/S 759 mmHg 21%
    15:00 +39°C° 0 mm 6 m/S 759 mmHg 23%
    16:00 +38°C° 0 mm 6 m/S 759 mmHg 26%
    17:00 +34°C° 0 mm 5 m/S 759 mmHg 32%
    18:00 +32°C° 0 mm 5 m/S 759 mmHg 39%
    19:00 +29°C° 0 mm 4 m/S 759 mmHg 45%
    20:00 +28°C° 0 mm 3 m/S 759 mmHg 45%
    21:00 +28°C° 0 mm 2 m/S 760 mmHg 44%
    22:00 +27°C° 0 mm 2 m/S 760 mmHg 43%
    23:00 +27°C° 0 mm 2 m/S 760 mmHg 42%

    übermorgen, 19 August, Samstag

    Zeit Temperatur Niederschläge Wind Luftdruck Luftfeuchtigkeit
    00:00 +27°C° 0 mm 2 m/S 760 mmHg 41%
    01:00 +26°C° 0 mm 2 m/S 760 mmHg 40%
    02:00 +26°C° 0 mm 1 m/S 759 mmHg 40%
    03:00 +26°C° 0 mm 1 m/S 759 mmHg 40%
    04:00 +25°C° 0 mm 1 m/S 759 mmHg 40%
    05:00 +27°C° 0 mm 1 m/S 759 mmHg 37%
    06:00 +29°C° 0 mm 1 m/S 759 mmHg 35%
    07:00 +30°C° 0 mm 2 m/S 759 mmHg 32%
    08:00 +32°C° 0 mm 2 m/S 759 mmHg 29%
    09:00 +35°C° 0 mm 2 m/S 759 mmHg 26%
    10:00 +37°C° 0 mm 2 m/S 759 mmHg 23%
    11:00 +38°C° 0 mm 2 m/S 759 mmHg 22%
    12:00 +38°C° 0 mm 3 m/S 759 mmHg 22%
    13:00 +40°C° 0 mm 4 m/S 758 mmHg 21%
    14:00 +38°C° 0 mm 3 m/S 758 mmHg 23%
    15:00 +37°C° 0 mm 3 m/S 758 mmHg 25%
    16:00 +36°C° 0 mm 2 m/S 758 mmHg 27%
    17:00 +34°C° 0 mm 2 m/S 758 mmHg 34%
    18:00 +30°C° 0 mm 2 m/S 758 mmHg 40%
    19:00 +28°C° 0 mm 2 m/S 759 mmHg 46%
    20:00 +27°C° 0 mm 2 m/S 759 mmHg 46%
    21:00 +27°C° 0 mm 2 m/S 759 mmHg 47%
    22:00 +26°C° 0 mm 2 m/S 759 mmHg 47%
    23:00 +26°C° 0 mm 2 m/S 759 mmHg 47%

    20 August, Sonntag

    Zeit Temperatur Niederschläge Wind Luftdruck Luftfeuchtigkeit
    00:00 +26°C° 0 mm 3 m/S 759 mmHg 46%
    01:00 +25°C° 0 mm 3 m/S 759 mmHg 46%
    02:00 +25°C° 0 mm 3 m/S 758 mmHg 45%
    03:00 +25°C° 0 mm 3 m/S 758 mmHg 45%
    04:00 +25°C° 0 mm 3 m/S 758 mmHg 44%
    05:00 +27°C° 0 mm 3 m/S 758 mmHg 41%
    06:00 +28°C° 0 mm 3 m/S 758 mmHg 38%
    07:00 +30°C° 0 mm 3 m/S 758 mmHg 35%
    08:00 +33°C° 0 mm 3 m/S 758 mmHg 32%
    09:00 +35°C° 0 mm 3 m/S 758 mmHg 29%
    10:00 +37°C° 0 mm 3 m/S 758 mmHg 26%
    11:00 +37°C° 0 mm 3 m/S 758 mmHg 26%
    12:00 +38°C° 0 mm 4 m/S 757 mmHg 26%
    13:00 +38°C° 0 mm 4 m/S 757 mmHg 26%
    14:00 +38°C° 0 mm 4 m/S 757 mmHg 29%
    15:00 +37°C° 0 mm 3 m/S 757 mmHg 32%
    16:00 +36°C° 0 mm 3 m/S 756 mmHg 35%
    17:00 +33°C° 0 mm 3 m/S 757 mmHg 43%
    18:00 +30°C° 0 mm 2 m/S 757 mmHg 51%
    19:00 +27°C° 0 mm 2 m/S 757 mmHg 59%
    20:00 +27°C° 0 mm 2 m/S 758 mmHg 60%
    21:00 +27°C° 0 mm 2 m/S 758 mmHg 61%
    22:00 +26°C° 0 mm 2 m/S 758 mmHg 62%
    23:00 +26°C° 0,1 mm 2 m/S 758 mmHg 65%

    21 August, Montag

    Zeit Temperatur Niederschläge Wind Luftdruck Luftfeuchtigkeit
    00:00 +25°C° 0,1 mm 2 m/S 758 mmHg 68%
    01:00 +24°C° 0,1 mm 3 m/S 758 mmHg 72%
    02:00 +24°C° 0,3 mm 3 m/S 758 mmHg 73%
    03:00 +22°C° 0,3 mm 3 m/S 758 mmHg 75%
    04:00 +22°C° 0,3 mm 4 m/S 758 mmHg 76%
    05:00 +23°C° 0,1 mm 4 m/S 758 mmHg 71%
    06:00 +25°C° 0,1 mm 4 m/S 758 mmHg 67%
    07:00 +26°C° 0,1 mm 4 m/S 758 mmHg 62%
    08:00 +28°C° 0 mm 5 m/S 758 mmHg 55%
    09:00 +30°C° 0 mm 5 m/S 759 mmHg 47%
    10:00 +33°C° 0 mm 5 m/S 759 mmHg 39%
    11:00 +34°C° 0 mm 6 m/S 758 mmHg 36%
    12:00 +34°C° 0 mm 7 m/S 758 mmHg 33%
    13:00 +35°C° 0 mm 7 m/S 758 mmHg 30%
    14:00 +35°C° 0 mm 8 m/S 758 mmHg 29%
    15:00 +34°C° 0 mm 9 m/S 758 mmHg 28%
    16:00 +34°C° 0 mm 9 m/S 758 mmHg 27%
    17:00 +31°C° 0 mm 9 m/S 758 mmHg 32%
    18:00 +28°C° 0 mm 8 m/S 758 mmHg 38%
    19:00 +24°C° 0 mm 8 m/S 759 mmHg 44%
    20:00 +24°C° 0 mm 7 m/S 759 mmHg 45%
    21:00 +23°C° 0 mm 7 m/S 759 mmHg 47%
    22:00 +22°C° 0 mm 7 m/S 760 mmHg 48%
    23:00 +21°C° 0 mm 6 m/S 760 mmHg 48%

    22 August, Dienstag

    Zeit Temperatur Niederschläge Wind Luftdruck Luftfeuchtigkeit
    00:00 +21°C° 0 mm 6 m/S 760 mmHg 48%
    01:00 +20°C° 0 mm 6 m/S 760 mmHg 48%
    02:00 +20°C° 0 mm 6 m/S 760 mmHg 50%
    03:00 +19°C° 0 mm 6 m/S 760 mmHg 51%
    04:00 +19°C° 0 mm 6 m/S 760 mmHg 52%
    05:00 +20°C° 0 mm 6 m/S 760 mmHg 49%
    06:00 +22°C° 0 mm 6 m/S 761 mmHg 46%
    07:00 +23°C° 0 mm 6 m/S 761 mmHg 42%
    08:00 +27°C° 0 mm 5 m/S 761 mmHg 36%
    09:00 +29°C° 0 mm 5 m/S 761 mmHg 30%
    10:00 +32°C° 0 mm 5 m/S 761 mmHg 23%
    11:00 +33°C° 0 mm 5 m/S 760 mmHg 21%
    12:00 +34°C° 0 mm 6 m/S 760 mmHg 19%
    13:00 +36°C° 0 mm 7 m/S 760 mmHg 17%
    14:00 +35°C° 0 mm 7 m/S 759 mmHg 18%
    15:00 +34°C° 0 mm 7 m/S 759 mmHg 20%
    16:00 +34°C° 0 mm 8 m/S 759 mmHg 21%
    17:00 +30°C° 0 mm 7 m/S 759 mmHg 31%
    18:00 +27°C° 0 mm 6 m/S 759 mmHg 40%
    19:00 +23°C° 0 mm 6 m/S 759 mmHg 49%
    20:00 +23°C° 0 mm 5 m/S 760 mmHg 47%
    21:00 +22°C° 0 mm 4 m/S 760 mmHg 46%
    22:00 +22°C° 0 mm 3 m/S 760 mmHg 44%
    23:00 +22°C° 0 mm 3 m/S 760 mmHg 42%
    Mehr zeigen